[[{"header":{"parameterUnit":"m.s-1","parameterCategory":1,"la1":30.2991,"la2":30.254,"lo1":-89.0895,"lo2":-89.0444,"dy":0.0017,"dx":0.0017,"nx":28,"ny":28,"refTime":"2024-07-04T03:00:00:Z","depth":0,"parameterNumber":2,"parameterNumberName":"U-component_of_WINDS"},"data":[0,0,0,0,0,0,0,0,0,0,0,0,0,0,0,0,0,0,0,0,0,0,0,0,0,0,0,0,0,0,0,0,0,0,0,0,0,0,0,0,0,0,0,0,0,0,0,0,0,0,0,0,0,0,0,0,0,0,2.9961,2.9961,0,3.0033,3.0033,3.0034,3.0027,3.0026,3.0025,3.0024,3.01,3.0103,3.0106,0,0,0,0,0,0,0,0,0,0,0,0,0,2.9821,2.9823,2.9961,2.9961,2.9962,3.0033,3.0034,3.0035,3.0028,3.0026,3.0025,3.0024,3.0099,3.0103,3.0107,0,0,0,0,0,0,0,0,0,0,0,0,0,2.9886,2.9824,2.996,2.9967,2.9969,3.0032,3.0034,3.0035,3.0028,3.0026,3.0025,3.0023,3.0098,3.0103,3.0107,3.0169,0,0,3.0121,3.0123,0,0,0,0,0,0,0,0,2.9882,2.9891,2.9965,2.9967,2.9969,3.0019,3.0012,3.008,3.0028,3.0006,3.0024,3.0022,3.0075,3.0081,3.0099,3.0173,3.0176,3.0122,3.0124,3.0126,3.0128,0,0,0,0,0,0,0,2.9878,2.9888,2.9989,2.9967,2.9969,2.9968,2.9976,3.0025,3.0049,3.0007,3.0007,3.0016,3.0075,3.0094,3.01,3.0177,3.0121,3.0126,3.0128,3.013,3.0308,3.031,0,0,0,0,0,0,2.9871,2.9884,2.9987,2.9991,2.992,2.9972,2.998,3.0005,3.0048,3.0053,3.0017,3.0015,3.0087,3.0095,3.0103,3.018,3.0126,3.0131,3.0133,3.0306,3.0309,3.0311,0,0,0,0,0,0,2.9868,2.9881,2.9984,2.9938,2.9951,2.9976,3.0004,3.0007,3.0026,3.0055,3.006,3.0031,3.0086,3.0096,3.0153,3.0182,3.0133,3.0137,3.0304,3.0307,3.031,3.0333,0,0,0,0,0,0,2.9864,2.9879,2.9902,2.9938,2.9953,3.0032,3.0006,3.001,3.0033,3.0032,3.007,3.0075,3.0086,3.0146,3.0158,3.0188,3.0141,3.0302,3.0305,3.0309,3.033,3.0336,3.0342,0,0,0,0,0,2.9859,2.9906,2.9903,2.9916,2.9982,3.0033,3.0042,3.0053,3.0036,3.006,3.0079,3.0074,3.0177,3.0152,3.0165,3.0197,3.03,3.0304,3.0309,3.0327,3.0335,3.0342,0,0,0,0,0,0,2.9873,2.9911,2.9908,2.9968,2.9997,3.0032,3.0062,3.0061,3.0096,3.0093,3.0105,3.0114,3.0172,3.019,3.0161,3.026,3.0236,3.0244,3.0246,3.0254,3.026,3.0254,3.0144,0,0,0,0,0,2.9882,2.992,2.9951,3.0001,3.0016,3.0037,3.0059,3.0065,3.0097,3.0109,3.0133,3.0164,3.0204,3.023,3.0268,3.0333,3.0342,3.0361,3.0367,3.0372,3.0378,3.0415,3.0425,3.0325,3.0325,3.0325,0,0,2.9903,2.9929,2.9951,3.0004,3.0028,3.0068,3.0047,3.009,3.012,3.0116,3.0171,3.019,3.0226,3.0287,3.0315,3.0304,3.0408,3.0378,3.0381,3.0385,3.0421,3.043,3.0439,3.0328,3.0328,3.0327,0,0,2.9961,2.9984,3.0028,3.0052,3.0089,3.0102,3.0113,3.0149,3.0161,3.0216,3.0215,3.0252,3.0319,3.0346,3.0368,3.0439,3.0436,3.0451,3.0483,3.0519,3.0527,3.0534,3.0561,3.057,3.0457,3.0457,3.0457,0,2.9982,3.0041,3.0051,3.0095,3.0119,3.0117,3.0163,3.0187,3.0234,3.0251,3.0238,3.0324,3.0349,3.0417,3.0434,3.0452,3.0466,3.0447,3.0525,3.0532,3.0539,3.0564,3.0574,3.0459,3.0459,3.0459,3.0458,0,3.0066,3.0107,3.0139,3.0184,3.0212,3.0257,3.0275,3.0302,3.0306,3.0322,3.038,3.0409,3.0454,3.0471,3.0475,3.054,3.0532,3.0522,3.0498,3.055,3.0574,3.0584,3.0461,3.0461,3.046,3.046,0,0,3.0133,3.0185,3.0196,3.0218,3.0259,3.0291,3.0337,3.038,3.0404,3.0437,3.0477,3.0535,3.0527,3.0552,3.056,3.0591,3.0647,3.0578,3.0579,3.059,3.0723,3.0731,3.0741,3.0646,3.0648,3.0649,3.072,0,3.0196,3.0275,3.0287,3.0357,3.0396,3.0397,3.0437,3.0467,3.0483,3.052,3.0539,3.0581,3.0565,3.0581,3.0612,3.0634,3.0674,3.0629,3.0684,3.0686,3.0675,3.0754,3.0762,3.0827,3.073,3.0731,3.0732,0,3.0279,3.0315,3.0389,3.0426,3.0443,3.0479,3.0521,3.0555,3.059,3.06,3.063,3.0634,3.0683,3.0658,3.0726,3.0695,3.0719,3.0733,3.0736,3.0741,3.0712,3.0762,3.0848,3.0858,3.0747,3.0746,3.0745,0,3.0322,3.0388,3.0442,3.046,3.0505,3.053,3.055,3.0583,3.0609,3.0647,3.0664,3.0707,3.073,3.0764,3.078,3.076,3.0848,3.0824,3.0859,3.0859,3.0877,3.0876,3.0969,3.0892,3.0892,3.0892,3.0891,0,3.0391,3.0436,3.0462,3.0495,3.0547,3.0561,3.0612,3.0631,3.0662,3.07,3.0703,3.0739,3.0758,3.0797,3.081,3.0866,3.0876,3.0887,3.089,3.0887,3.0886,3.0902,3.0898,3.0894,3.0894,3.0893,3.0893,0,3.0447,3.0465,3.0524,3.0562,3.0572,3.0609,3.0642,3.0675,3.0692,3.074,3.0753,3.078,3.0826,3.0846,3.0903,3.0912,3.0976,3.0976,3.0964,3.0965,3.1,3.0996,3.1106,3.1122,3.1035,3.1035,3.1036,0,3.0489,3.0525,3.0567,3.0592,3.0613,3.0653,3.068,3.0696,3.0724,3.0768,3.0796,3.0843,3.0881,3.0955,3.0981,3.1025,3.1026,3.1062,3.1033,3.1029,3.1028,3.1025,3.103,3.1067,3.1068,3.1069,3.1069,0,3.0564,3.0572,3.061,3.0652,3.0684,3.0718,3.0751,3.0772,3.0794,3.0825,3.0873,3.0902,3.0961,3.1008,3.1054,3.1076,3.1077,3.1078,3.1089,3.1086,3.1078,3.1084,3.0979,3.1076,3.1075,3.1074,3.1074,3.1074,3.0615,3.0647,3.0682,3.0725,3.0752,3.0783,3.0817,3.0838,3.0878,3.0926,3.0934,3.0985,3.1021,3.1083,3.1108,3.1149,3.114,3.1155,3.1159,3.1163,3.1165,3.1072,3.1157,3.1157,3.1157,3.1157,3.1157,0,3.069,3.0713,3.0752,3.0799,3.0834,3.0831,3.0868,3.0898,3.0942,3.0976,3.1013,3.1069,3.1115,3.1145,3.1191,3.1219,3.1221,3.1231,3.1229,3.1234,3.117,3.1156,3.1229,3.1229,3.1228,3.1228,3.1228,3.1228,3.0733,3.0788,3.08,3.0869,3.0892,3.0941,3.0963,3.0993,3.102,3.1082,3.112,3.1139,3.1171,3.1221,3.1263,3.1271,3.1289,3.1299,3.1307,3.1246,3.1239,3.1231,3.1219,3.1303,3.1303,3.1368,3.1368,3.1369]},{"header":{"parameterUnit":"m.s-1","parameterCategory":1,"la1":30.2991,"la2":30.254,"lo1":-89.0895,"lo2":-89.0444,"dy":0.0017,"dx":0.0017,"nx":28,"ny":28,"refTime":"2024-07-04T03:00:00:Z","depth":0,"parameterNumber":3,"parameterNumberName":"V-component_of_WINDS"},"data":[0,0,0,0,0,0,0,0,0,0,0,0,0,0,0,0,0,0,0,0,0,0,0,0,0,0,0,0,0,0,0,0,0,0,0,0,0,0,0,0,0,0,0,0,0,0,0,0,0,0,0,0,0,0,0,0,0,0,0.4777,0.4776,0,0.4761,0.476,0.476,0.4738,0.4737,0.4737,0.4737,0.472,0.472,0.472,0,0,0,0,0,0,0,0,0,0,0,0,0,0.4787,0.4787,0.4777,0.4776,0.4776,0.4761,0.476,0.476,0.4738,0.4737,0.4737,0.4736,0.472,0.472,0.472,0,0,0,0,0,0,0,0,0,0,0,0,0,0.4778,0.4787,0.4777,0.4763,0.4762,0.4761,0.476,0.476,0.4738,0.4737,0.4737,0.4736,0.472,0.472,0.472,0.4731,0,0,0.472,0.4719,0,0,0,0,0,0,0,0,0.4778,0.4778,0.4765,0.4764,0.4763,0.4751,0.4758,0.475,0.4738,0.4747,0.4737,0.4736,0.4731,0.473,0.4728,0.473,0.4729,0.472,0.4719,0.4719,0.4719,0,0,0,0,0,0,0,0.4779,0.4778,0.477,0.4765,0.4763,0.4758,0.4756,0.4756,0.4742,0.4746,0.4745,0.4743,0.473,0.4728,0.4727,0.4729,0.472,0.4719,0.4719,0.4719,0.4737,0.4738,0,0,0,0,0,0,0.4782,0.4779,0.4771,0.477,0.4769,0.4758,0.4756,0.4755,0.4742,0.474,0.4743,0.4742,0.4729,0.4728,0.4727,0.4737,0.4719,0.4719,0.4719,0.4737,0.4737,0.4738,0,0,0,0,0,0,0.4782,0.4781,0.4771,0.4774,0.4772,0.4758,0.4758,0.4755,0.4753,0.474,0.4737,0.4744,0.4728,0.4727,0.4729,0.4736,0.4719,0.4719,0.4736,0.4737,0.4738,0.4759,0,0,0,0,0,0,0.4783,0.4782,0.4786,0.4774,0.4772,0.4775,0.4758,0.4755,0.4753,0.4751,0.474,0.4738,0.4728,0.473,0.4729,0.4736,0.4719,0.4735,0.4736,0.4737,0.4758,0.4761,0.4763,0,0,0,0,0,0.4783,0.4793,0.4786,0.4785,0.4777,0.4775,0.4774,0.4762,0.4754,0.4758,0.4749,0.4738,0.4736,0.473,0.473,0.4736,0.4735,0.4736,0.4737,0.4757,0.476,0.4763,0,0,0,0,0,0,0.4806,0.4791,0.4783,0.479,0.4784,0.4771,0.4776,0.4766,0.4763,0.4761,0.4746,0.4744,0.4748,0.4742,0.4736,0.4745,0.4734,0.4735,0.4749,0.4752,0.4754,0.4755,0.4719,0,0,0,0,0,0.4811,0.4811,0.4798,0.4805,0.4803,0.479,0.4789,0.478,0.4773,0.4771,0.4762,0.4756,0.4754,0.4753,0.475,0.4757,0.4754,0.4761,0.4764,0.4766,0.4767,0.4769,0.4772,0.4742,0.4742,0.4742,0,0,0.4823,0.4815,0.4816,0.4809,0.4804,0.4804,0.4788,0.4789,0.4788,0.4771,0.4772,0.4766,0.4758,0.4763,0.4764,0.4758,0.4775,0.4768,0.477,0.4769,0.4771,0.4774,0.4776,0.4743,0.4743,0.4743,0,0,0.4844,0.4839,0.4843,0.4838,0.4829,0.4821,0.4822,0.4811,0.4806,0.4807,0.4794,0.4793,0.479,0.4784,0.4781,0.4799,0.4789,0.4799,0.4813,0.4815,0.4817,0.4819,0.4825,0.4827,0.48,0.48,0.48,0,0.486,0.4859,0.4847,0.4848,0.4845,0.4829,0.4833,0.4828,0.482,0.4818,0.4811,0.4806,0.48,0.4802,0.4807,0.4805,0.4805,0.48,0.4818,0.482,0.4822,0.4827,0.4829,0.4801,0.4801,0.4801,0.4801,0,0.4878,0.4878,0.4883,0.4874,0.4872,0.4875,0.4862,0.4861,0.4853,0.4845,0.4846,0.4837,0.4832,0.4832,0.4824,0.4833,0.483,0.4821,0.4809,0.4826,0.483,0.4832,0.4803,0.4803,0.4802,0.4802,0,0,0.4913,0.4898,0.4899,0.4895,0.4884,0.4884,0.4885,0.488,0.4879,0.4874,0.4874,0.4872,0.4863,0.4859,0.485,0.4853,0.4866,0.4843,0.4843,0.4847,0.4875,0.4881,0.4884,0.486,0.486,0.486,0.4875,0,0.4932,0.4934,0.4922,0.4927,0.4926,0.4911,0.4912,0.4905,0.4898,0.4896,0.4887,0.4885,0.4874,0.4872,0.4873,0.4864,0.4872,0.4863,0.4859,0.4859,0.4861,0.4886,0.4893,0.4907,0.4877,0.4877,0.4878,0,0.4954,0.4949,0.4954,0.4942,0.4941,0.4943,0.4936,0.4935,0.4927,0.4921,0.4917,0.4906,0.4906,0.4895,0.4895,0.4889,0.4887,0.4882,0.4882,0.4881,0.4869,0.4884,0.4912,0.4914,0.488,0.488,0.488,0,0.4977,0.4972,0.4974,0.4971,0.4958,0.4959,0.4953,0.4945,0.4942,0.4937,0.4935,0.4929,0.4926,0.4922,0.491,0.4904,0.4911,0.4899,0.4905,0.4906,0.4907,0.4907,0.4934,0.4907,0.4907,0.4907,0.4907,0,0.4999,0.5002,0.4984,0.4986,0.4989,0.4975,0.4978,0.4971,0.4963,0.4962,0.4949,0.4948,0.4933,0.493,0.4921,0.4921,0.492,0.4915,0.4913,0.4916,0.4916,0.4914,0.4912,0.4908,0.4908,0.4907,0.4907,0,0.5025,0.5014,0.5015,0.5002,0.4999,0.5001,0.499,0.499,0.4982,0.4981,0.498,0.4966,0.4962,0.495,0.4944,0.4937,0.494,0.4936,0.4943,0.4941,0.4947,0.4947,0.4973,0.4975,0.4948,0.4948,0.4948,0,0.5039,0.5041,0.5029,0.5027,0.5022,0.502,0.5017,0.5003,0.5001,0.4991,0.4992,0.4988,0.4983,0.4977,0.4967,0.4961,0.4956,0.4965,0.4955,0.4958,0.4955,0.4955,0.4954,0.4967,0.4968,0.4968,0.4968,0,0.5065,0.5059,0.5055,0.505,0.5046,0.5041,0.5035,0.5035,0.5019,0.5017,0.5013,0.5009,0.5002,0.4997,0.499,0.4984,0.4973,0.4972,0.4973,0.4976,0.4979,0.4977,0.4948,0.4971,0.4971,0.4971,0.497,0.497,0.5085,0.5086,0.5077,0.5073,0.5067,0.5061,0.5061,0.5052,0.5048,0.5041,0.5034,0.503,0.5021,0.501,0.5005,0.5001,0.4996,0.4998,0.4998,0.4998,0.4999,0.4981,0.5,0.5,0.5,0.5,0.5,0,0.5109,0.5102,0.5099,0.5091,0.5088,0.5078,0.5071,0.5069,0.5066,0.5059,0.5054,0.5049,0.5044,0.5033,0.5026,0.5026,0.5021,0.5024,0.5024,0.5022,0.5005,0.5005,0.5029,0.5029,0.5029,0.5029,0.5029,0.5029,0.5121,0.5121,0.5114,0.5111,0.5105,0.5101,0.5098,0.5092,0.5086,0.5081,0.5077,0.5069,0.506,0.5053,0.5048,0.5044,0.5042,0.5048,0.5043,0.5027,0.5024,0.5021,0.502,0.5047,0.5047,0.506,0.506,0.506]}]]